Vertical_Velocity
0 -0 1 2 -2 17 -0 11 -8 8 -2 2 1 -2 1 -1 -3 -4 1 -2 -2 -3 -2 -0 -1 -1 -0 -1 0 1 0 -1 -1 0 0 -1 1 2 1 -1 1 1 1 2 1 1 1 0 -1
1 0 -1 -0 -3 20 4 0 -2 7 6 -1 6 0 2 -1 0 0 -1 -0 -2 -3 -1 -3 -2 -0 -0 -2 -1 -1 -2 -1 -1 -1 -2 -0 -0 -0 2 3 2 1 -0 2 0 1 0 0 2
1 -3 -2 -1 7 23 9 19 -2 -3 2 -2 5 2 -2 1 0 0 -1 -1 -2 -1 -0 -1 -1 1 1 -0 0 -1 -0 -1 -1 -1 0 0 2 2 3 1 -1 -2 -0 -2 -2 -0 -1 3 0
-2 -1 1 -2 9 -2 4 -1 -6 6 -0 -2 -1 1 -2 0 -1 -1 0 -2 -2 -1 -1 -1 -1 -1 -1 -2 -1 -1 -1 -1 0 -0 -0 -0 0 1 0 -1 -1 -1 -0 -1 -1 -1 -2 -2 -2
-3 3 2 7 -3 -0 3 -3 -6 4 4 3 3 -2 1 0 -1 1 3 -2 0 1 -1 -1 -1 -1 -1 -2 -2 -1 -1 -1 -1 -2 -2 -0 1 1 -1 -2 -2 0 -2 -1 -1 -3 -2 -1 -3
-5 20 19 -1 -2 -7 1 -0 -1 6 -2 0 0 -3 2 4 -5 -1 -1 -1 1 -1 -1 -1 -1 -1 -2 -1 -1 -2 -2 -1 -2 -2 -1 -1 -1 -0 -1 -2 -2 -2 -0 -2 -2 -3 -1 -2 -1
-6 -5 1 -3 -1 4 5 -8 1 -1 1 1 -2 -2 -1 0 -0 1 -2 -3 -2 -1 -3 -3 -1 -0 0 -1 -1 1 -0 -2 -1 -1 -1 -1 -0 -4 -2 -4 -4 -2 -0 1 0 1 -2 1 1
-4 1 51 10 17 -1 4 4 2 1 0 -1 -3 1 -2 2 3 2 -2 -3 1 -1 -4 -3 -1 1 -1 0 -0 -2 -1 -0 -1 -3 -1 -2 -2 -3 -2 -2 0 3 3 3 0 -1 -1 2 2
-1 -1 15 6 0 20 4 5 -1 -0 3 -1 2 -3 2 2 0 -1 0 -2 1 2 -2 -2 1 -4 1 -2 -2 -1 -2 0 -0 -2 -3 -5 -4 -1 -1 2 5 1 -2 -4 0 1 -3 1 -1
0 3 62 -8 -3 -4 1 1 -3 -1 -3 -4 -2 0 -0 2 -2 3 2 -1 -2 -1 -3 -0 -1 -4 -1 -2 -1 -0 -0 -3 -1 -2 -5 -3 -1 0 -4 2 4 -8 -9 -7 3 3 -4 -3 -1
10 6 1 5 -1 1 2 7 -4 -0 1 -3 -3 -0 -1 -3 4 -4 2 -0 -3 -1 -3 -2 2 -4 -1 -3 -3 -1 -2 -1 -1 -2 -3 -4 -0 -3 3 3 1 -7 -6 -4 5 4 7 -7 -1
16 6 -11 -1 3 0 -0 -2 4 -1 -2 -4 -3 -1 -1 -4 -2 2 4 1 -3 -6 -0 -1 -2 -4 1 -2 -2 -1 -0 -4 1 -5 -1 1 -1 3 -2 0 5 -1 2 1 -0 -0 -3 3 -1
6 9 -2 5 3 1 -0 3 1 11 -0 -2 -3 -6 4 -2 0 -1 3 -1 -1 4 0 -1 -2 3 -3 -2 -2 -3 0 0 -2 -4 -0 -2 2 -4 1 -8 -2 3 11 -1 -1 1 8 -0 2
-2 2 -2 3 8 -0 -4 -8 -1 1 -1 1 -3 -2 -3 -2 -1 -2 -0 3 -0 1 1 2 -0 0 1 -1 -2 0 -2 3 1 -2 -1 -4 -1 -4 -3 1 -4 -10 2 4 3 1 -3 -5 -1
1 2 -4 -0 1 2 -4 -6 -18 2 -9 3 -5 -0 0 0 2 2 6 -1 1 0 -2 -1 1 -0 4 -1 -0 0 -2 -1 -1 2 -0 3 -3 -4 -0 -6 -3 -3 2 0 -5 -0 1 -3 3
-7 -1 4 -1 6 4 -5 119 13 3 2 -4 -1 -1 -1 -1 -5 0 -0 4 -0 2 2 -1 4 0 -0 -0 3 -3 0 -2 1 -0 0 1 -3 -3 -1 -4 1 -0 -0 -5 -5 -1 -2 -2 2
-11 -4 2 3 -1 -0 3 -16 30 17 -0 2 -1 1 -0 -0 0 3 1 1 2 2 2 -2 2 2 -1 -1 1 0 -1 -2 0 5 0 1 -1 -1 -1 0 2 -3 -1 0 1 -2 -2 3 1
-1 -0 4 1 -6 7 4 11 7 -18 4 -2 -2 1 -1 3 -2 0 2 -1 0 0 2 -0 0 1 1 2 0 -0 0 -1 -5 2 1 -1 3 4 4 1 -3 2 -0 -4 -2 7 3 -1 -1
5 -1 1 11 21 -9 10 9 12 9 -7 -1 -1 -2 -0 1 -1 -1 -1 -1 -1 -1 1 2 -1 -1 3 -1 1 -0 1 0 0 1 0 -0 1 1 1 2 -1 -0 3 -1 1 -1 -0 1 0
1 -4 0 -22 34 8 3 12 -5 13 9 -3 -2 -2 -0 -1 2 -0 3 0 1 -3 0 -0 2 1 -0 2 2 1 -0 0 1 0 1 -1 1 5 -4 -0 1 -0 -1 -2 2 2 -1 -1 1
-2 -3 4 10 19 -4 -0 27 18 7 7 4 -3 -0 -2 -1 2 -3 -1 1 -0 -2 0 -3 0 1 0 -1 2 4 -1 1 -0 -0 -1 0 -3 -0 -5 -2 -3 1 -1 -1 -3 5 -0 -0 -1
-3 6 1 0 4 -3 -16 -13 -10 20 6 5 -0 -3 5 -6 0 -3 -2 2 0 -2 0 -1 1 1 2 1 1 1 0 2 -0 2 -0 1 -1 -0 1 -2 -1 -0 -0 -0 -3 -0 1 -3 -1
10 3 7 8 5 8 -6 6 16 15 5 -0 0 -0 6 -10 -7 -2 -4 2 -1 2 -1 0 3 2 3 1 2 2 -0 3 3 1 1 1 -0 -1 1 1 -0 -1 -1 -0 -1 -3 2 -2 1
20 -2 -7 -3 3 4 5 11 7 3 -2 5 -1 -4 7 3 4 0 -3 -0 1 1 1 1 -0 -0 2 2 -2 1 1 2 0 1 -4 0 1 1 -0 3 1 -4 -4 -0 -1 -3 -1 -1 -1
5 0 -4 2 3 -1 -5 8 -3 10 -3 -9 -3 -2 -1 6 11 5 2 2 0 3 -1 3 -0 -2 2 0 -0 -3 -0 1 2 -2 4 -2 -0 3 -2 0 3 -1 -3 -1 0 -2 -0 -3 -1
7 6 2 -4 1 -3 11 9 6 -2 -2 -6 -8 6 3 -5 1 -5 2 6 1 2 -0 4 1 -2 2 1 1 -0 4 -0 2 1 -1 1 2 4 -0 1 5 1 -2 -3 1 0 -1 -0 -1
13 -20 18 7 15 4 -9 3 -3 -3 -9 0 -3 -1 -6 -2 14 5 4 6 -6 -0 -1 3 -0 1 1 3 4 3 2 2 0 4 6 1 1 1 -0 0 4 0 2 -1 -3 -1 -1 -1 -0
-20 14 2 -5 -3 7 1 7 6 6 2 -7 -3 1 -8 -4 -8 -4 -2 -3 2 -2 -6 -1 -1 1 2 -0 -1 2 0 0 -0 -0 4 2 2 2 4 4 0 1 -1 1 0 -2 0 1 -0
-9 -7 -0 3 -4 -3 5 3 2 -3 0 0 -5 -7 -4 2 5 4 1 -5 -0 0 -2 0 1 -2 7 4 2 -1 2 2 3 -1 -2 2 2 -1 4 2 -1 2 1 2 4 -1 0 0 1
2 -3 -1 -8 1 12 13 -3 1 15 4 -2 -5 -4 -8 -1 2 4 36 -7 11 10 72 2 1 8 -1 5 5 1 -3 -0 1 2 -2 2 0 0 -1 1 2 2 -3 1 3 -1 0 -0 3
Height
5894 5894 5893 5892 5895 5889 5892 5891 5892 5894 5894 5895 5895 5896 5897 5897 5896 5899 5899 5899 5900 5900 5901 5903 5904 5905 5906 5906 5907 5908 5909 5910 5910 5910 5909 5909 5910 5910 5910 5910 5911 5909 5908 5907 5907 5907 5908 5909 5910
5893 5895 5896 5895 5895 5887 5894 5893 5894 5896 5898 5897 5900 5900 5900 5900 5901 5901 5902 5901 5901 5903 5904 5905 5905 5906 5906 5907 5908 5909 5910 5910 5910 5910 5911 5912 5912 5912 5913 5913 5912 5909 5906 5905 5906 5908 5910 5910 5910
5895 5897 5897 5895 5892 5885 5893 5890 5894 5897 5899 5900 5903 5903 5902 5904 5905 5904 5904 5904 5905 5906 5907 5907 5908 5908 5908 5909 5910 5910 5911 5912 5912 5912 5912 5912 5913 5914 5915 5914 5912 5911 5910 5908 5907 5910 5912 5912 5912
5897 5897 5894 5893 5887 5894 5893 5895 5898 5899 5901 5902 5902 5904 5905 5905 5907 5907 5907 5908 5908 5909 5910 5909 5910 5910 5909 5909 5909 5910 5911 5911 5912 5912 5913 5914 5916 5916 5916 5915 5915 5914 5912 5911 5912 5913 5914 5915 5914
5897 5893 5884 5889 5888 5891 5894 5897 5898 5901 5903 5905 5905 5905 5906 5907 5909 5910 5910 5911 5911 5912 5912 5912 5912 5912 5912 5911 5911 5912 5912 5913 5914 5915 5916 5916 5917 5918 5917 5917 5917 5917 5916 5916 5915 5915 5917 5916 5916
5896 5892 5891 5891 5888 5890 5897 5898 5901 5904 5902 5905 5905 5906 5908 5910 5909 5911 5912 5913 5914 5914 5915 5914 5914 5915 5915 5915 5916 5915 5915 5915 5917 5918 5918 5918 5918 5919 5919 5918 5918 5919 5919 5919 5919 5919 5919 5918 5918
5897 5895 5894 5893 5893 5895 5898 5898 5900 5902 5904 5906 5906 5907 5910 5911 5912 5914 5915 5916 5917 5917 5917 5917 5918 5920 5920 5919 5920 5920 5920 5920 5920 5920 5920 5920 5919 5919 5920 5919 5920 5922 5924 5924 5923 5923 5922 5922 5921
5896 5894 5881 5894 5892 5893 5900 5902 5903 5905 5906 5906 5908 5908 5912 5913 5915 5916 5916 5918 5920 5920 5919 5920 5922 5923 5923 5922 5922 5923 5923 5924 5923 5923 5921 5922 5922 5922 5922 5924 5925 5926 5926 5926 5926 5925 5924 5925 5926
5896 5896 5891 5895 5898 5899 5901 5901 5904 5906 5907 5907 5910 5910 5913 5915 5916 5918 5920 5921 5922 5922 5921 5923 5926 5925 5926 5926 5926 5926 5926 5926 5925 5925 5924 5924 5925 5925 5927 5929 5929 5926 5925 5924 5926 5927 5926 5928 5928
5890 5894 5871 5896 5901 5902 5903 5904 5906 5908 5909 5910 5910 5912 5915 5916 5918 5920 5921 5923 5924 5926 5924 5926 5928 5928 5929 5929 5929 5929 5929 5928 5928 5928 5928 5928 5929 5930 5930 5931 5929 5928 5930 5930 5928 5930 5929 5929 5931
5893 5893 5895 5899 5900 5903 5903 5904 5906 5908 5910 5910 5912 5912 5917 5916 5920 5921 5923 5925 5927 5929 5927 5929 5931 5931 5931 5932 5932 5932 5932 5930 5932 5932 5931 5932 5933 5933 5933 5933 5930 5930 5934 5934 5931 5935 5935 5931 5932
5883 5895 5898 5899 5902 5902 5903 5904 5906 5909 5911 5910 5912 5914 5917 5917 5920 5923 5926 5927 5927 5928 5930 5932 5935 5932 5935 5935 5936 5936 5935 5934 5937 5935 5933 5937 5937 5936 5936 5936 5937 5930 5933 5933 5935 5938 5939 5936 5935
5895 5897 5900 5901 5903 5902 5903 5903 5906 5909 5911 5912 5913 5915 5918 5919 5920 5923 5926 5928 5930 5933 5933 5934 5936 5937 5937 5939 5939 5940 5940 5939 5940 5938 5938 5939 5939 5938 5939 5941 5939 5940 5939 5938 5938 5941 5944 5941 5940
5894 5897 5898 5901 5903 5901 5904 5906 5906 5907 5910 5914 5914 5915 5916 5920 5920 5923 5927 5929 5931 5933 5935 5935 5936 5938 5941 5941 5941 5942 5943 5943 5944 5944 5942 5941 5941 5942 5943 5943 5942 5944 5944 5944 5942 5944 5944 5943 5945
5891 5894 5897 5901 5901 5902 5905 5901 5907 5907 5911 5914 5915 5915 5917 5920 5921 5924 5928 5930 5931 5934 5935 5936 5937 5940 5942 5941 5943 5946 5944 5944 5945 5946 5945 5945 5945 5945 5945 5946 5945 5947 5947 5946 5944 5944 5946 5949 5951
5889 5892 5896 5899 5900 5901 5904 5894 5902 5907 5909 5911 5914 5915 5918 5919 5920 5923 5927 5931 5932 5934 5936 5937 5939 5942 5944 5945 5946 5945 5947 5946 5945 5947 5947 5947 5947 5947 5948 5947 5948 5948 5948 5947 5948 5948 5949 5952 5955
5885 5892 5895 5898 5898 5902 5903 5903 5898 5904 5907 5909 5912 5915 5918 5919 5921 5924 5926 5930 5933 5935 5937 5939 5940 5943 5943 5945 5947 5947 5948 5948 5947 5949 5949 5948 5948 5950 5951 5951 5950 5951 5952 5951 5952 5953 5955 5957 5958
5887 5891 5892 5893 5896 5901 5901 5903 5904 5907 5907 5910 5911 5914 5916 5919 5920 5923 5925 5928 5932 5935 5937 5939 5941 5944 5945 5946 5948 5949 5950 5950 5949 5950 5950 5950 5951 5952 5953 5954 5954 5955 5955 5955 5956 5958 5959 5960 5961
5886 5888 5892 5891 5894 5892 5898 5899 5904 5906 5907 5908 5910 5912 5914 5918 5920 5924 5925 5928 5930 5933 5936 5939 5940 5943 5946 5946 5947 5949 5951 5951 5952 5952 5950 5950 5951 5952 5954 5955 5956 5957 5958 5958 5959 5960 5961 5962 5963
5879 5881 5884 5882 5883 5892 5897 5893 5901 5903 5905 5907 5908 5910 5912 5916 5920 5923 5927 5929 5930 5932 5935 5938 5941 5944 5945 5948 5949 5950 5951 5953 5953 5952 5952 5952 5952 5952 5953 5955 5957 5959 5959 5961 5962 5963 5963 5963 5965
5873 5875 5881 5884 5890 5889 5885 5881 5899 5900 5901 5905 5907 5909 5911 5913 5919 5921 5925 5928 5930 5931 5934 5936 5940 5943 5945 5946 5949 5950 5951 5952 5952 5953 5953 5954 5953 5955 5955 5956 5957 5959 5960 5962 5963 5966 5965 5966 5967
5869 5875 5878 5875 5883 5885 5881 5886 5895 5895 5897 5901 5903 5908 5908 5911 5917 5918 5920 5925 5928 5930 5932 5935 5939 5942 5944 5946 5948 5950 5951 5952 5953 5954 5955 5955 5956 5958 5958 5958 5958 5960 5961 5962 5964 5966 5966 5966 5967
5869 5870 5876 5877 5880 5881 5884 5890 5891 5892 5893 5897 5902 5905 5903 5908 5912 5916 5918 5923 5925 5929 5931 5934 5937 5941 5944 5946 5948 5950 5952 5952 5952 5954 5955 5956 5957 5959 5959 5960 5960 5960 5961 5963 5964 5965 5967 5968 5968
5868 5867 5868 5872 5874 5871 5878 5883 5884 5887 5891 5894 5899 5901 5902 5905 5910 5914 5916 5920 5923 5926 5930 5933 5936 5939 5943 5945 5948 5949 5952 5952 5952 5953 5955 5956 5957 5959 5961 5961 5962 5961 5963 5963 5965 5966 5968 5969 5969
5858 5862 5863 5867 5868 5874 5877 5880 5879 5885 5888 5891 5894 5897 5899 5900 5904 5910 5914 5917 5921 5924 5928 5932 5934 5937 5941 5943 5946 5947 5949 5950 5953 5953 5955 5956 5958 5960 5961 5962 5965 5964 5964 5965 5965 5967 5967 5969 5970
5850 5856 5857 5862 5867 5875 5881 5877 5879 5882 5884 5888 5891 5894 5898 5896 5898 5904 5912 5917 5919 5921 5925 5929 5932 5935 5939 5941 5944 5945 5947 5948 5950 5952 5954 5956 5957 5960 5963 5963 5965 5966 5965 5966 5966 5967 5969 5970 5971
5845 5848 5859 5863 5866 5873 5873 5875 5875 5879 5878 5884 5889 5893 5896 5895 5894 5899 5907 5913 5913 5916 5920 5924 5927 5930 5934 5937 5941 5943 5944 5946 5947 5951 5954 5957 5959 5961 5963 5963 5965 5965 5967 5967 5966 5967 5968 5969 5971
5838 5847 5854 5855 5861 5867 5870 5872 5871 5875 5874 5879 5888 5893 5896 5894 5895 5900 5904 5908 5911 5914 5915 5917 5921 5925 5929 5932 5935 5938 5942 5943 5945 5947 5952 5955 5956 5958 5960 5962 5963 5964 5965 5967 5967 5967 5967 5968 5970
5834 5836 5846 5851 5858 5860 5861 5863 5865 5870 5875 5876 5881 5887 5891 5894 5897 5898 5902 5905 5905 5907 5911 5914 5917 5919 5923 5927 5931 5933 5938 5941 5942 5944 5949 5952 5954 5955 5957 5958 5960 5963 5964 5966 5966 5966 5967 5968 5969
5826 5832 5840 5844 5852 5857 5856 5857 5857 5863 5866 5871 5874 5879 5884 5889 5892 5892 5888 5897 5897 5902 5888 5908 5912 5918 5915 5921 5928 5932 5934 5938 5940 5940 5944 5949 5951 5952 5954 5956 5957 5959 5961 5964 5964 5964 5965 5966 5968